Zurück zum Katalog

CAT 4

AktivWissenschaftHEO
NORAD 13011·PAYLOAD·🇪🇺 EU

Gestartet Dec 20, 1981 von Guiana Space Centre

Loading…

Nächste Überflüge (nächste 24 Stunden)

TLE

AktuellSource: Space-Track

Epoche: Sep 14, 2026, 14:58 UTC

1 13011U 81122B   26257.62384257  .00003959  00000-0  73835-3 0  9994
2 13011  10.6019  69.8046 6510313  88.1945 339.8719  3.31014354363828

Verfolge CAT 4 in Echtzeit mit AllMySat

Download on the App Store